Retour au catalogue

STARLINK-35212

ActifCommunicationsVLEO
NORAD 65496·PAYLOAD·🇺🇸 United States

Lancé Sep 5, 2025 depuis Cape Canaveral Space Force Station

Loading…

Prochains Passages (prochaines 24 heures)

TLE

FraisSource: CelesTrak SupGP

Époque: Sep 14, 2026, 14:28 UTC

1 65496C 25198E   26257.60326389  .00019060  00000+0  56279-3 0  2578
2 65496  53.1566 111.0221 0001241  95.4117  86.1997 15.34400514    19

Suivez STARLINK-35212 en temps réel avec AllMySat

Download on the App Store